2024-173E (61231 NORAD) Tracking and Keplerian Element Data

This shows tracking and keplerian element data for the satellite.

Feedback or suggestion? Click here.




ElementValue
Catalog61231
Name2024-173E
Epoch Orbit275
Epoch Day286.66005148
Epoch Year2024
RAAN359.2417
Inclination97.3974
Eccentricity0.0012468
Argument of Perigee205.1116
Mean Anonmoly154.9517
Mean Motion15.24479736
Decay Rate7.039E-05
L11 61231U 24173E 24286.66005148 .00007039 00000+0 28878-3 0 9996
L22 61231 97.3974 359.2417 0012468 205.1116 154.9517 15.24479736 2756



Live tracking and technical data element details for 2024-173E (NORAD 61231). 2024-173E can be tracked NOW for your location showing map with azimuth and elevation plus other details from your city location.







IsCatalogInMostPopularTable: catalog: 61231, numindb: 25
Update: records affected: 1



GetName: 61231 2024-173E

Hit Count: updated at: Fri, 06 Dec 2024 10:55:12 GMT